Location: Kailua
(21.4020°N, 157.7390°W)
Time: 16:24:58
(UTC-10:00)

Daily predictions for brighter satellites

Satellite Brightness Start Highest point End
(mag) Time Altitude Azimuth Time Altitude Azimuth Time Altitude Azimuth
Cosmos 1680 Rocket 4.2 19:25:59 10° SSE 19:30:35 32° E 19:35:11 10° NE
Iridium 4 Rocket 4.4 19:26:11 10° NNE 19:31:03 33° E 19:36:10 10° SSE
SJ-6B 3.0 19:28:38 10° SSE 19:32:42 61° ENE 19:36:46 10° N
Cosmos 1536 Rocket 4.4 19:29:25 10° SSE 19:33:07 28° E 19:36:50 10° NNE
GPS 2-05 Rocket1 4.4 19:32:12 10° W 19:34:47 24° SW 19:37:23 10° SSE
Intelsat 5-1 Rocket 3.8 19:23:57 10° W 19:35:13 48° SSW 19:39:26 10° SE
XTE 3.0 19:33:38 10° W 19:36:33 73° N 19:39:27 10° E
Cosmos 1125 Rocket 4.3 19:35:32 10° NNW 19:40:39 53° WSW 19:45:43 10° S
Hubble Space Telescope 1.6 19:37:35 10° SW 19:41:14 30° SSE 19:44:54 10° E
Cosmos 1709 Rocket 4.3 19:36:47 10° NNE 19:42:39 44° E 19:48:25 10° SSE
GPS 2-18 Rocket1 3.0 19:39:50 10° W 19:43:32 75° S 19:47:02 11° E
Helios 1B rocket 3.5 19:43:07 10° NE 19:46:28 24° E 19:49:48 10° SSE
DELTA 2 R/B(2) 3.7 19:48:40 10° NW 19:50:52 51° NNE 19:52:02 18° ESE
Cosmos 405 Rocket 3.1 19:52:28 10° SSE 19:55:55 37° E 19:59:25 10° NNE
FREGAT/IRIS 4.5 19:53:15 10° SSW 19:56:01 32° W 19:58:46 10° NNW
COSMOS 2455 3.3 19:52:16 10° N 19:57:56 43° ENE 20:02:27 16° SE
Cosmos 1544 Rocket 3.8 19:55:37 10° N 19:59:47 48° E 20:03:39 12° SSE
Resurs 1-3 3.8 19:57:24 11° SSE 20:01:28 50° ENE 20:05:42 10° N
HJ-1C 4.0 19:59:15 10° S 20:02:35 58° W 20:05:55 10° NNW
Aurora 2 Rocket 4.2 19:56:30 10° WNW 20:03:03 69° N 20:12:11 11° E
Cosmos 1441 Rocket 4.3 20:03:29 20° ESE 20:04:32 23° E 20:07:31 10° NE
Cosmos 1500 3.1 20:03:12 10° N 20:06:55 62° E 20:09:56 15° SSE
Cosmos 2369 Rocket 3.1 20:05:00 10° NNW 20:10:25 48° WSW 20:15:51 10° S
CZ-3A R/B 2.4 19:58:13 10° SW 20:10:54 88° NW 20:14:26 10° NE
Aureole 1 Rocket 2.4 20:08:30 10° S 20:12:27 81° ESE 20:15:41 10° NNE
Cosmos 1943 Rocket 2.1 20:07:39 10° NNW 20:13:13 83° ENE 20:17:50 15° SSE
Resurs 01 Rocket 1.6 20:11:12 10° SSE 20:15:37 88° WSW 20:20:03 10° NNW
Meteor 1-29 3.0 20:18:07 10° NNE 20:21:23 52° E 20:22:36 32° SSE
Meteor 1-19 Rocket 4.2 20:15:43 10° S 20:21:34 82° E 20:27:20 10° N
Cosmos 2074 Rocket 4.5 20:18:39 10° NNE 20:24:28 39° E 20:27:15 26° SE
Cosmos 1455 Rocket 2.9 20:20:21 10° N 20:24:41 88° E 20:27:43 19° S
Cosmos 1346 3.2 20:24:53 21° SSW 20:26:32 62° W 20:29:16 10° N
Blok-L 3.6 20:19:55 10° NNW 20:27:29 49° NE 20:28:30 39° E
Cosmos 2184 Rocket 4.4 20:22:07 10° NNE 20:28:00 41° E 20:30:33 28° SE
ASTRO E2 4.4 20:29:27 10° NW 20:32:50 26° NNE 20:34:42 18° NE
Orbus 7S 4.2 20:36:56 10° W 20:39:38 60° N 20:43:48 16° ENE
Cosmos 1743 2.6 20:36:10 10° N 20:40:02 65° E 20:40:28 59° SE
Cosmos 1975 3.8 20:37:18 10° NNW 20:41:12 45° W 20:44:07 16° SSW
SL-27 R/B 4.1 20:39:21 10° SW 20:42:43 36° WNW 20:46:07 10° N
Fermi 3.9 20:39:00 10° WSW 20:42:37 50° S 20:42:37 50° S
SAR-Lupe-4 4.1 20:44:13 45° NE 20:44:13 45° NE 20:47:13 10° N
Nadezhda 1 Rocket 3.9 20:39:11 13° S 20:44:56 79° E 20:51:19 10° N
Cosmos 2082 Rocket 3.5 20:47:02 22° ENE 20:47:02 22° ENE 20:49:41 10° NE
Cosmos 1238 Rocket 4.0 20:41:57 15° S 20:47:35 78° E 20:54:16 10° N
YAOGAN 6 4.3 20:49:54 22° NNE 20:49:54 22° NNE 20:51:33 10° NNE
GPS 2-14 Rocket1 2.5 20:45:20 10° W 20:48:58 75° SSW 20:48:58 75° SSW
Helios 1A 2.8 20:48:47 61° SSE 20:49:28 82° ENE 20:53:41 10° N
Cosmos 1939 Rocket 2.7 20:52:01 70° NE 20:52:01 70° NE 20:55:42 10° N
ASTEX 1 3.6 20:53:37 50° E 20:53:42 50° E 20:58:25 10° N
SJ-11-01 4.1 20:55:01 62° SSE 20:55:46 80° ENE 21:00:27 10° N
CENTAUR R/B 3.2 20:47:35 10° NNW 20:55:50 70° ENE 20:59:18 39° SE
USA 186 3.8 20:56:32 21° SW 20:57:26 24° W 21:00:05 10° NW
Cosmos 1666 3.2 20:58:20 10° N 21:01:12 51° N 21:01:12 51° N
Okean 1-7 Rocket 3.9 21:03:11 45° SW 21:04:21 65° W 21:08:47 10° N
Cosmos 2154 Rocket 4.2 21:06:02 10° N 21:12:10 51° E 21:12:10 51° E
Envisat 4.0 21:18:25 33° SW 21:19:57 42° W 21:24:44 10° NNW
Cosmos 1833 Rocket 3.5 21:23:47 38° NE 21:23:47 38° NE 21:27:16 10° NNE
Hubble Space Telescope 2.2 21:18:14 10° WSW 21:20:41 34° W 21:20:41 34° W
Meteor 2-9 Rocket 4.1 21:19:03 10° N 21:24:38 82° W 21:24:54 79° SW
Cosmos 1025 Rocket 4.3 21:26:33 34° W 21:27:00 35° W 21:30:53 10° NNW
Cosmos 2341 Rocket 4.3 21:38:59 10° N 21:44:14 60° NNE 21:44:14 60° NNE
Aurora 2 Rocket 4.2 21:49:52 10° WNW 21:58:06 86° SSW 21:58:48 79° SE
ERS-1 Rocket 4.4 22:01:27 34° WNW 22:01:27 34° WNW 22:04:47 10° NNW
ARGOS 4.3 22:03:04 39° NNW 22:03:04 39° NNW 22:06:23 10° NNW
Cosmos 2082 Rocket 4.1 22:28:45 25° WNW 22:28:50 25° WNW 22:33:25 10° NNW
H-2A R/B 4.4 22:42:20 18° NNW 22:42:20 18° NNW 22:43:35 10° NNW
